Find Local Weather

World > North America > United States > Wisconsin

Appleton, Wisconsin Regional Weather

Lat: 44.26N, Lon: 88.4W
Wx Zone: WIZ038
Feedback
Expires:201901171000;;483087
ASUS43 KMKX 170920
RWRWI 

WISCONSIN REGIONAL WEATHER ROUNDUP
NATIONAL WEATHER SERVICE MILWAUKEE/SULLIVAN WI
300 AM CST THU JAN 17 2019

NOTE: "FAIR" INDICATES FEW OR NO CLOUDS BELOW 12,000 FEET WITH NO
SIGNIFICANT WEATHER AND/OR OBSTRUCTIONS TO VISIBILITY.


WIZ011>013-019>022-031-037>040-048>050-171000-
NORTHEAST WISCONSIN
  
CITY           SKY/WX    TMP DP  RH WIND       PRES   REMARKS
ANTIGO         CLOUDY    10   6  84 CALM      30.16F                  
SHAWANO        FAIR      10   8  88 CALM      30.21F                  
OCONTO         MOCLDY     6   3  88 CALM      30.24F                  
STURGEON BAY   CLOUDY    10   4  76 CALM      30.24F                  
GREEN BAY      FAIR      14   9  80 CALM      30.23F                  
MANITOWOC      FAIR      12  10  92 NW3       30.24F                  
APPLETON       CLOUDY    18  10  73 E3        30.18F                  
CLINTONVILLE   MOCLDY    10   6  83 CALM      30.20F                  
OSHKOSH        CLOUDY    21  15  78 E3        30.20F                  
$$
 

SKY/WX - Weather  TMP - Temperature  DP - Dew Point  RH - Relative Humidity
WIND - Wind Direction/Speed PRES - Barometric Pressure